sat.trackr.live / text

‹ back to catalog

ONEWEB-0054

NORAD 45158 · 2020-008AD

PAYLOAD ACTIVE UNKNOWN

§ Identity

Operator
Country
UK
Launch date
2020-02-06
Launch site
TYMSC
Launch vehicle
Mass (kg)
RCS (m²)

Purposes: comms

External: N2YO · Heavens-Above · Gunter

§ Orbital elements

Epoch: 2026-09-03T15:42:53.049024Z

Period
109.89 min
Inclination
87.8881°
Eccentricity
0.0001662
Mean motion
13.10375381 rev/d
Perigee alt
1,220.4 km
Apogee alt
1,223.0 km
Semi-major
7,599.8 km
B*
5.9646e-4
RAAN
20.6410°
Arg perigee
97.8489°
Mean anomaly
262.2828°
Rev number
31,830

§ Raw data

ONEWEB-00541 45158U 20008AD  26246.65478066  .00000221  00000+0  59646-3 0  99922 45158  87.8881  20.6410 0001662  97.8489 262.2828 13.10375381318305

JSON: /api/v1/satellites/45158 · /tle

For live sub-satellite position, see the globe view (requires WebGL).

§ Visibility from observer

Set your observer location to see the next 7 days of passes ≥ 10°. The values pass through the URL so the page stays shareable.

No JS? Fill the form by hand. The geolocation button needs JavaScript.